Location: Unspecified
(52.1384°N, 8.6525°W)
Time: 11:43:21
(UTC+00:00)

XW-2F - Pass Details

Date: 22 January 2021
Orbit: 500 x 519 km, 97.5° (Epoch: 24 February)

Event Time Altitude Azimuth Distance (km) Brightness Sun altitude
Rises 07:38:13 0° 7° (N) 2,660 ? -7.7°
Reaches altitude 10° 07:40:26 10° 358° (N) 1,768 ? -7.4°
Maximum altitude 07:43:54 34° 293° (WNW) 884 ? -6.9°
Drops below altitude 10° 07:47:20 10° 228° (SW) 1,756 ? -6.5°
Sets 07:49:33 0° 219° (SW) 2,639 ? -6.1°
